Regional Weather Roundup
Issued by NWS

Home | Current Version | Previous Version | Graphics & Text | Print | Product List | Glossary On
Versions: 1 2 3 4 5 6 7 8 9 10 11 12 13 14 15 16 17 18 19 20 21 22 23 24 25 26 27 28 29 30 31 32 33 34 35 36 37 38 39 40 41 42 43 44 45 46 47 48 49 50
000
ASUS43 KDMX 222107
RWRIA

WEATHER ROUNDUP FOR IOWA
NATIONAL WEATHER SERVICE DES MOINES IA
400 PM CDT TUE JUL 22 2014

NOTE: "FAIR" INDICATES FEW OR NO CLOUDS BELOW 12,000 FEET WITH NO
SIGNIFICANT WEATHER AND/OR OBSTRUCTIONS TO VISIBILITY.

* - THESE STATIONS ARE NOT NWS STATIONS...THUS NOT UNDER NWS
QUALITY CONTROL.  THEY ALSO DO NOT REPORT WEATHER SUCH
AS PRECIPITATION OR FOG.

IAZ001>003-012>014-020>022-031>034-043>046-222200-
   NORTHWEST IOWA

CITY           SKY/WX    TMP DP  RH WIND       PRES   REMARKS
CARROLL *      SUNNY     84  70  61 N12       30.09R HX  88
CHEROKEE *     SUNNY     82  68  61 N10G17    30.14R HX  85
DENISON *      SUNNY     82  70  65 N14       30.10R HX  86
LE MARS *      SUNNY     81  68  65 N9        30.13F HX  83
ORANGE CITY *  SUNNY     82  63  51 N8        30.15R HX  83
SHELDON *      SUNNY     82  64  54 VRB7G13   30.15R HX  84
SIOUX CITY     PTSUNNY   82  68  62 E12       30.06F HX  85
SPENCER        SUNNY     84  64  50 NW12G21   30.13R HX  85
STORM LAKE *   SUNNY     81  70  69 NW13      30.14R HX  84
$$

IAZ055>058-069>071-079>083-090>094-222200-
   SOUTHWEST IOWA

CITY           SKY/WX    TMP DP  RH WIND       PRES   REMARKS
ATLANTIC *     SUNNY     86  73  66 N10G17    30.05R HX  93
AUDUBON *      SUNNY     88  75  66 N10       30.09R HX  97
CLARINDA *     MOSUNNY   93  79  62 VRB6      30.02S HX 110
COUNCIL BLFS * SUNNY     88  73  62 N8G17     30.07R HX  96
CRESTON *      SUNNY     88  77  70 N13       30.03F HX 100
HARLAN  *      SUNNY     84  75  74 N14       30.11R HX  92
LAMONI         SUNNY     92  79  65 W6        30.02R HX 108
RED OAK *      SUNNY     91  79  66 N12       30.04R HX 107
SHENANDOAH *   MOSUNNY   91  81  70 N10       30.02S HX 110
$$

IAZ047>049-059>061-072>074-084-222200-
   CENTRAL IOWA

CITY           SKY/WX    TMP DP  RH WIND       PRES   REMARKS
AMES           MOSUNNY   87  72  60 NW10      30.02S HX  93
ANKENY *       SUNNY     90  75  62 N10       30.01S HX 100
CHARITON *     PTSUNNY   91  81  70 W8        30.01S HX 110
DES MOINES     MOSUNNY   91  74  57 N12       30.01S HX 100
GRINNELL*      CLOUDY    86  77  74 W9        30.01S HX  97
KNOXVILLE *    SUNNY     88  79  74 N12       29.99S HX 102
MARSHALLTOWN   PTSUNNY   89  72  56 NW12      30.01R HX  96
PELLA *        PTSUNNY   90  77  66 NW10      30.01F HX 102
PERRY *          N/A     86  72  62 N12G18    30.04S HX  92
$$

IAZ004>006-015-016-023>025-035-036-222200-
   NORTH CENTRAL IOWA

CITY           SKY/WX    TMP DP  RH WIND       PRES   REMARKS
ALGONA *       SUNNY     82  66  57 NW13G21   30.09R HX  85
CLARION *      SUNNY     84  70  61 NW14      30.06R HX  88
ESTHERVILLE    SUNNY     82  64  54 N15G21    30.11R HX  83
FORT DODGE *   PTSUNNY   82  70  65 NW8       30.09R HX  86
MASON CITY     SUNNY     86  68  54 NW15      30.06R HX  89
FOREST CITY *  SUNNY     82  66  57 N16G22    30.07R HX  85
IOWA FALLS *     N/A     86  68  54 NW12      30.04R HX  89
$$

IAZ007>011-017>019-026>030-037>042-050>054-066-222200-
   NORTHEAST IOWA

CITY           SKY/WX    TMP DP  RH WIND       PRES   REMARKS
CEDAR RAPIDS   PTSUNNY   89  76  65 NW10      29.96S HX 100
CHARLES CITY * SUNNY     84  70  61 N13G20    30.03R HX  88
DECORAH *      SUNNY     86  72  62 NW9G17    29.99S HX  92
DUBUQUE        MOSUNNY   88  78  72 NW14      29.96F HX 101
MONTICELLO *   SUNNY     88  81  79 W10G17    29.95F HX 105
OELWEIN *      SUNNY     90  70  51 NW12G20   29.99S HX  95
WATERLOO       MOSUNNY   92  69  47 NW13      29.97S HX  97
$$

IAZ064-065-067-068-078-222200-
   EAST CENTRAL IOWA

CITY           SKY/WX    TMP DP  RH WIND       PRES   REMARKS
DAVENPORT      MOSUNNY   86  77  74 S9        29.95F HX  97
IOWA CITY      PTSUNNY   88  79  74 NW10G22   29.98R HX 103
MT. PLEASANT * PTSUNNY   86  75  70 SW7       29.99R HX  95
MUSCATINE *    PTSUNNY   82  79  89 SW7       29.94F HX  93
QUAD CITIES    MOSUNNY   86  76  71 SW9       29.95F HX  96
$$

IAZ062-063-075>077-085>089-095>099-222200-
   SOUTHEAST IOWA

CITY           SKY/WX    TMP DP  RH WIND       PRES   REMARKS
BURLINGTON     PTSUNNY   89  79  72 CALM      29.98F HX 104
FAIRFIELD *    SUNNY     86  77  74 W7        29.98F HX  97
FORT MADISON * PTSUNNY   88  81  79 N3        30.00F HX 105
KEOKUK *       PTSUNNY   86  79  79 CALM      29.99S HX  99
OSKALOOSA *      N/A     90  79  70 NW15      30.00R HX 105
CENTERVILLE *  MOSUNNY   90  81  74 W7        30.01F HX 108
OTTUMWA        PTSUNNY   89  78  70 NW9       29.97F HX 103
WASHINGTON *   PTSUNNY   82  79  89 W8G14     29.99R HX  93
$$

ABBREVIATIONS USED IN REMARKS
   TC - TEMPERATURES IN CELSIUS
  WCI - WIND CHILL INDEX
   HX - HEAT INDEX
  VSB - VISIBILITY
$$




USA.gov is the U.S. government's official web portal to all federal, state and local government web resources and services.